Regional Weather Roundup
Issued by NWS

Home | Current Version | Previous Version | Text Only | Print | Product List | Glossary On
Versions: 1 2 3 4 5 6 7 8 9 10 11 12 13 14 15 16 17 18 19 20 21 22 23 24 25 26 27 28 29 30 31 32 33 34 35 36 37 38 39 40 41 42 43 44 45 46 47 48 49 50
000
ASHW40 PHFO 030743
RWRHI

WEATHER ROUNDUP FOR HAWAII
NATIONAL WEATHER SERVICE HONOLULU HI
900 PM HST MON MAY 02 2016

THIS IS AN AUTOMATED REPORT THAT HAS NOT BEEN QUALITY CONTROLLED.

NOTE..."FAIR" INDICATES FEW OR NO CLOUDS BELOW 12,000 FEET WITH NO
SIGNIFICANT WEATHER AND/OR OBSTRUCTIONS TO VISIBILITY.

* - THESE SITES REPORT LIMITED FIELDS

HIZ001>004-030800-
KAUAI-NIIHAU-

CITY           SKY/WX    TMP DP  RH WIND       PRES   REMARKS
LIHUE APT      PTCLDY    77  68  73 NE17      30.16R
PORT ALLEN*      N/A     75 N/A N/A E12G20      N/A
POIPU*           N/A     75 N/A N/A NE9G18      N/A
PRINCEVILLE*     N/A     75 N/A N/A E9          N/A
KOKOLE POINT*  NOT AVBL
MOLOAA DAIRY*    N/A     73  68  83 NE3G12      N/A
WAIMEA HTS*      N/A     72  63  73 E3          N/A
PUU OPAE*        N/A     66  57  72 N3G9        N/A
PUU LUA*       NOT AVBL
MAKAHA RIDGE*    N/A     66  61  82 NE2         N/A
$$

HIZ005>011-030800-
OAHU-

CITY           SKY/WX    TMP DP  RH WIND       PRES   REMARKS
HONOLULU       PTCLDY    76  63  64 NE12      30.12R
KALAELOA       PTCLDY    74  61  63 NE3       30.13R
KANEOHE MCB    PTCLDY    76  66  71 NE7       30.12R
WHEELER FIELD  FAIR      72  63  72 NW3       30.13R
BELLOWS*         N/A    N/A N/A N/A NE16        N/A
KAHUKU*          N/A    N/A N/A N/A VRB8G17     N/A
WHEELER*         N/A    N/A N/A N/A NW2         N/A
WAIANAE HARBOR   N/A    N/A N/A N/A NE6G14      N/A
DILLINGHAM*      N/A     73  63  68 MISG        N/A
KAHUKU TRN*      N/A     72  63  73 CALM        N/A
KAWAILOA*        N/A     70  63  78 E6G16       N/A
KII*             N/A     75  66  73 E17         N/A
MAKUA RANGE*     N/A     73  63  68 E3G18       N/A
OAHU FOREST NW   N/A     68  63  83 SE8G26      N/A
SCHOFIELD BRK*   N/A    N/A N/A N/A MISG        N/A
SCHOFIELD S*   NOT AVBL
WAIANAE VLY*     N/A     73  59  60 VRB13G30    N/A
KUAOKALA*        N/A     72  63  73 NE14G31     N/A
HONOULIUULI*   NOT AVBL
MOKUOLOE IS*   NOT AVBL
PALEHUA*         N/A     64  61  88 NE9G20      N/A
WAIAWA PHB*    NOT AVBL
$$

HIZ012>013-030800-
MOLOKAI-

CITY           SKY/WX    TMP DP  RH WIND       PRES   REMARKS
MOLOKAI AIRPT  CLOUDY    73  64  73 NE12G21   30.14S
KALAUPAPA      NOT AVBL
MAKAPULAPAI*     N/A     75  66  73 E18G26      N/A
MOLOKAI 1*       N/A     63  55  77 SE3G14      N/A
PUU ALII*        N/A     56  55  98 N2G15       N/A
$$

HIZ016-030800-
KAHOOLAWE-

CITY           SKY/WX    TMP DP  RH WIND       PRES   REMARKS
KAHOOLAWE*       N/A     70 N/A N/A SE1         N/A
HAKIOAWA*        N/A     69  63  82 MISG      30.55R
HONOKANAIA*      N/A     77  65  65 N15G26    30.03R
KANELOA*         N/A     73  66  78 E13G25    30.17R
KEALIALALO*    NOT AVBL
LUA MAKIKA*    NOT AVBL
$$

HIZ014>015-030800-
LANAI-

CITY           SKY/WX    TMP DP  RH WIND       PRES   REMARKS
LANAI CITY     FAIR      69  63  81 NE16G22   30.16R
LANAI 1*       NOT AVBL
$$

HIZ017>028-030800-
MAUI-

CITY           SKY/WX    TMP DP  RH WIND       PRES   REMARKS
KAHULUI        PTCLDY    74  66  76 NE7       30.13R
KAPALUA-W MAUI NOT AVBL
HANA AIRPORT   NOT AVBL
HANA*            N/A     72 N/A N/A S3          N/A
HALEAKALA SUMM   N/A     45  12  26 NE16        N/A
MAALAEA BAY*     N/A     75 N/A N/A N16G25      N/A
HALEAKALA*     NOT AVBL
KAUPO GAP*       N/A     55  54  94 NW3         N/A
KULA 1*          N/A     48  41  76 E7          N/A
$$

HIZ023>026-030800-
BIG ISLAND OF HAWAII COAST AND LOWER SLOPES-

CITY           SKY/WX    TMP DP  RH WIND       PRES   REMARKS
KAILUA KONA    CLEAR     78  63  59 E6        30.06S
HILO           PTCLDY    76  66  71 NE6       30.13R
HONOKAA*         N/A     68 N/A N/A VRB1        N/A
KAWAIHAE MWT*    N/A     81 N/A N/A E3          N/A
KAWAIHAE*        N/A     81 N/A N/A W3        30.07S
SOUTH POINT*     N/A     72 N/A N/A N12G20      N/A
UPOLU AIRPORT*   N/A    N/A N/A N/A NE18G26     N/A
KAMUELA*       PTSUNNY   63  61  94 NE21      30.19S
HAKALAU*         N/A    N/A N/A N/A W3          N/A
KALOKO-HONOKO*   N/A     77  68  73 CALM      30.06R
PALI 2*          N/A     64  55  72 S23G35      N/A
KEALAKOMO*       N/A     75  64  69 NE20G26     N/A
KAUPULEHU*       N/A    N/A N/A N/A S5G12       N/A
KAPAPALA*        N/A     61  59  94 VRB3        N/A
LOWER KAHUKU*    N/A     59 -42   1 VRB1        N/A
PUHE CS*         N/A     81  57  44 E3G16       N/A
PUHO CS*         N/A     76  67  75 NE2         N/A
PTA KEAMUKU*     N/A     61  50  67 CALM        N/A
WAIKOLOA*        N/A     72  59  64 E15G26      N/A
$$

HIZ027>028-030800-
BIG ISLAND OF HAWAII INTERIOR AND SUMMMITS-

CITY           SKY/WX    TMP DP  RH WIND       PRES   REMARKS
BRADSHAW FIELD CLOUDY    52  39  61 SE7       30.39R
MK VISITOR CEN   N/A     54   1  12 E10         N/A
MAUNA KEA*       N/A     39  -2  17 E17         N/A
MAUNA LOA*       N/A     50   0  12 MISG        N/A
MAUNA LOA 1*   NOT AVBL
PTA KIPUKA*      N/A     52  50  93 SE3G9       N/A
PTA RANGE 17*    N/A     55  37  50 E9G15       N/A
PTA WEST*        N/A     72  68  88 E3G9        N/A
NENE CABIN*      N/A    N/A N/A N/A NE5G12      N/A
AHUMOA*          N/A     48  46  93 E8          N/A
PTA PORTABLE*  NOT AVBL
PUU MALI*        N/A    N/A N/A N/A E18G25      N/A
$$

HIC003-030800-
NORTHWEST ISLANDS-

CITY           SKY/WX    TMP DP  RH WIND       PRES   REMARKS
MIDWAY ISLAND  CLOUDY    72  70  94 E8        30.20R
MIDWAY NOS*      N/A     72 N/A N/A MISG      30.18R
FRENCH FRIGATE NOT AVBL
$$

PHZ110>124-180-030800-
BUOY REPORTS

STATION/POSITION TIME  TEMP    WIND        PRES    WAVE   SWELL
                       AIR SEA DIR/SP/G            HT/PER HT/DIR
                 (UTC) (F)     (DEG/KT/KT) (MB)    (FT/S) (FT/D)
BUOY 51001       0700   78 79   80/ 17/ 21 1019.9R
BUOY 51101       0650   73 76   70/ 19/ 21 1021.7R   8/ 8   3/360
BUOY 51100       NOT AVBL
BUOY 51002       0650   77 78   70/ 17/ 19 1017.3R   8/ 8   5/ 90
BUOY 51003       0650   77 78   50/ 16/ 17 1018.3R   6/ 8   5/ 80
BUOY 51004       0650   78 79   60/ 17/ 21 1017.9R   8/12   3/330
BARBERS PT BUOY  NOT AVBL
WAIMEA BAY BUOY  0704      78                N/A     5/11   2/340
KAILUA BAY BUOY  0711      78                N/A     5/11   2/360
LANAI BUOY       0715      78                N/A     3/15   2/200
BARBERS PT 2     0703      79                N/A     4/14   2/190
PAUWELA MAUI     0709      77                N/A     6/11   2/340
HILO             0712      78                N/A     6/ 8   2/360
KANEOHE BAY BUOY 0706      78                N/A     5/11   2/350
HANALEI KAUAI    NOT AVBL
KAHULUI HARBOR   0700   75 78   30/ 10/ 12 1020.3R
HONOLULU HARBOR  0700   77 79   40/  6/  8 1020.5R
KILO NALU        NOT AVBL
HILO HARBOR      0700   76 77   30/ 11/ 13 1020.0R
MOKUOLOE         0600   77 79   80/  9/ 11 1020.4R
NAWILIWILI       0700   76 80   40/ 10/ 15 1020.8R
WHOTS BUOY       NOT AVBL
BUOY 51028       NOT AVBL
$$

......................KEY........................................
  SKY/WX - SKY CONDITIONS/PRESENT WEATHER
  TMP    - TEMPERATURE IN FAHRENHEIT
  DWPT   - DEWPOINT IN FAHRENHEIT
  RH     - RELATIVE HUMIDITY IN PERCENT
  WIND   - DIRECTION AND SPEED /MPH FOR ISLANDS...KTS FOR BUOYS/
  PRES   - MEAN SEA LEVEL PRESSURE IN INCHES OF HG
  VSB    - VISIBILITY IN MILES
  HX     - HEAT INDEX
  WCI    - WIND CHILL INDEX
  VRB    - VARIABLE WIND DIRECTION
  N/A    - NOT AVAILABLE




USA.gov is the U.S. government's official web portal to all federal, state and local government web resources and services.